STARLINK-1133, 45064

Orbit data source: Space-Track

STARLINK-1133, 45064 is a payload satellite owned by SpaceX/Seattle (US) in LEO that was launched on Wed, 29 Jan 2020 UTC via an FALCON 9 launch vehicle from the Air Force Eastern Test Range (AFETR). Payload-class satellites include a variety of spacecraft equipped with specific instruments for various scientific and technological missions. These include communications satellites like Starlink; space stations such as the ISS; scientific satellites like the Hubble; Earth observation satellites from companies like Planet Labs, Umbra, and HawkEye 360; GPS; miniature CubeSats for education and research; and military/defense satellites.

Loading next visibility...
Identifier
45064, 2020-006W
Orbit
LEO
Country
Flag of USUS
Related business
Manufacturer
SpaceX/Seattle
Mission
Partially operational Commercial Communications
Bus & Motor
STARLINK, Unknown motor
Mass
260 kg wet, ~248 kg dry
Launch date (UTC)
2020-01-29 (6 years ago)
Launch vehicle
FALCON 9
Launch site
Air Force Eastern Test Range (AFETR)
Object type
Payload
Rocket body
Debris
Shape & HBR
Box + 1 Pan, 10.1 m
Radar Cross Section
13.562 m², Large (>1 m²)

Expand to show TLE details & history
Last TLE update: 1 week ago

TLE from 1 week ago
0 STARLINK-1133
1 45064U 20006W   26154.47367594  .00044531  00000-0  13097-2 0  9999
2 45064  53.1551 218.4613 0005065 355.5522   4.5434 15.34668290350023
Epoch: 2026-06-03T11:22Z
TLE epoch observation values (Epoch: 2026-06-03T11:22:05.601Z)
Latitude
-0.00007°
Longitude
156.00612°
Altitude
459.353 km
Speed
7.64 km/s
True Right ascension
14h 33m 50s
True Declination
0° 00' 00"
Sunlit
Object was in full shadow at epoch
Visualization orbit readout
Latitude
Unknown
Longitude
Unknown
Altitude
Unknown
Speed
Unknown
Apparent Right ascension
Unknown
Apparent Declination
Unknown
Sunlit
N/A
Visualization observer readout
Local Sidereal Time
01:19:13
Azimuth
Unknown
Elevation
Unknown
Doppler factor
Unknown
Orbital elements
Apogee altitude
465.628 km
Perigee altitude
458.699 km
Semi-major axis
6,840.301 km
Eccentricity
0.00051
Inclination
53.1551°
RAAN
218.4613°
Arg. of periapsis
355.5522°
True anomaly
4.548°
Mean anomaly
4.5434°
Eccentric anomaly
4.5457°
Mean motion
3.83646 °/min
Orbital period
93.84 mins
BSTAR
0.0013097
Loading maneuver chart data...
Computing Atmospheric mass density...

Documentation

Showing up to 5 results
|